Ахины

Россия / Иркутская область     53°15′36″N   104°58′39″E
темп.,
°C
ветер,
м/с
пор.,
м/с
влажн.,
%
обл.,
%
осадки,
мм/ч
давл.,
гПа
погр.,
м
12 мая, ср
ср1223:00+4зсз227297 0.0 101510
02:00+3зсз11755 0.0 101410
05:00+2з118299 0.2 101310
08:00+8з266034 0.2 1011493
11:00+7с678199 1.1 1012848
14:00+7сз576096 1.4 10121518
17:00+8ссз4836100 0.1 10112374
20:00+6ссз37397 0.1 1013378
13 мая, чт
чт1323:00+1ссз265792 0.0 1016146
02:000с226424 0.0 101632
05:00−2ссз227330 0.0 101716
08:00+3ссз47425 0.0 10161500
11:00+5ссз5631100 0.0 10152532
14:00+6сз5631100 0.2 10142892
17:00+6ссз573475 0.0 10152104
20:00+5сз38435 0.1 1016433
14 мая, пт
пт1423:000сз22600 0.0 101918
02:00−2ссз22720 0.0 101912
05:00−2ссз21740 0.0 101910
08:00+5с12490 0.0 1018480
11:00+11ююв11335 0.0 10151425
14:00+13ю22260 0.0 10131752
17:00+13ю32250 0.0 10111860
20:00+10ю11355 0.0 101212
15 мая, сб
сб1523:00+5вюв22435 0.0 101410
02:00+3юв115244 0.0 101410
05:00+1в115361 0.0 101410
08:00+7з243679 0.0 1014369
11:00+10сз684755 0.0 10161356
14:00+10зсз6934100 0.0 10171616
17:00+10зсз61029100 0.0 10161798
20:00+8зсз3838100 0.0 1018581
16 мая, вс
вс1623:00+4зсз225580 0.0 102049
02:00+4з41179100 0.0 1020882
05:00+6з41290100 0.1 1019832
08:00+6зюз31187100 0.6 1019628
11:00+14з5105124 0.0 10161299
14:00+18зсз583611 0.0 10132160
17:00+19з47305 0.0 10112170
20:00+15зюз11433 0.0 101010